Regional Weather Roundup
Issued by NWS

Home | Current Version | Previous Version | Graphics & Text | Print | Product List | Glossary Off
Versions: 1 2 3 4 5 6 7 8 9 10 11 12 13 14 15 16 17 18 19 20 21 22 23 24 25 26 27 28 29 30 31 32 33 34 35 36 37 38 39 40 41 42 43 44 45 46 47 48 49 50

000
ASUS43 KLSX 052010
RWRMO

WEATHER SUMMARY FOR MISSOURI
NATIONAL WEATHER SERVICE SPRINGFIELD MO
200 PM CST FRI FEB 05 2016

NOTE: "FAIR" INDICATES FEW OR NO CLOUDS BELOW 12,000 FEET WITH NO
       SIGNIFICANT WEATHER AND/OR OBSTRUCTIONS TO VISIBILITY.
       CURRENT SKY AND/OR WEATHER CONDITIONS ARE NOT AVAILABLE FOR
       CHILLICOTHE AND FARMINGTON.

MOZ001>031-035>038-043-044-053-054-052100-
...NORTHERN AND WESTERN MISSOURI...

CITY           SKY/WX    TMP DP  RH WIND       PRES   REMARKS
KANSAS CTY INT PTSUNNY   39  21  48 W3        30.31F
KANSAS C DTWN  SUNNY     41  20  43 SW5       30.33F
LEE`S SUMMIT   SUNNY     40  21  46 VRB6      30.33F
ST JOSEPH      PTSUNNY   36  22  56 S8        30.33F WCI  30
CHILLICOTHE      N/A     35  24  64 VRB3      30.36F
KIRKSVILLE     PTSUNNY   34  14  43 S3        30.35F

$$
MOZ066>068-077>081-088>096-101>105-052100-
...SOUTHWEST MISSOURI...

CITY           SKY/WX    TMP DP  RH WIND       PRES   REMARKS
SPRINGFIELD    SUNNY     51  18  27 VRB7      30.31F
JOPLIN         SUNNY     52  22  30 SW12      30.33F

$$
MOZ032>034-039>042-045>050-055>058-069>072-052100-
...CENTRAL MISSOURI...

CITY           SKY/WX    TMP DP  RH WIND       PRES   REMARKS
COLUMBIA       CLOUDY    38  17  42 VRB3      30.35F
JEFFERSON CITY MOSUNNY   39  18  42 CALM      30.37F
ROLLA          MOSUNNY   40  19  43 W5        30.33F
SEDALIA        SUNNY     41  19  41 SE3       30.34F
WHITEMAN AFB   MOSUNNY   40  20  46 SW5       30.32F
WARRENSBURG    SUNNY     39  21  48 CALM      30.33F
OSAGE BEACH    SUNNY     45  19  36 W3        30.34F

$$
MOZ051-052-059>065-052100-
...EAST CENTRAL MISSOURI...

CITY           SKY/WX    TMP DP  RH WIND       PRES   REMARKS
ST LOUIS INTL  PTSUNNY   41  15  35 W3        30.39F
SPIRIT OF STL  SUNNY     40  19  43 CALM      30.38F
ST CHARLES     SUNNY     38  18  44 SW5       30.39F

$$
MOZ072>076-082>087-097>100-106>115-052100-
...SOUTH CENTRAL AND SOUTHEAST MISSOURI...

CITY           SKY/WX    TMP DP  RH WIND       PRES   REMARKS
CAPE GIRARDEAU SUNNY     48  22  35 W10       30.37F
FARMINGTON     MOSUNNY   47  19  33 W8        30.35F
POPLAR BLUFF   CLOUDY    50  21  32 SW14      30.36F
WEST PLAINS    CLOUDY    50  16  25 W14       30.35F

$$



USA.gov is the U.S. government's official web portal to all federal, state and local government web resources and services.